Tracking 28790 objects as of 19-Apr-2024
HD Live streaming from Space Station
objects crossing your sky now

COSMOS 2251 DEB

Track COSMOS 2251 DEB now!
10-day predictions


NORAD ID: 35706
Int'l Code: 1993-036AQB
Perigee: 769.0 km
Apogee: 1,296.7 km
Inclination: 73.9 °
Period: 105.7 minutes
Semi major axis: 7403 km
RCS: 0.0105 m2 (small)
Launch date: June 16, 1993
Source: Commonwealth of Independent States (former USSR) (CIS)
Launch site: PLESETSK MISSILE AND SPACE COMPLEX (PKMTR)

Note: This is SATELLITE DEBRIS
Your satellite tracking list
Your tracking list is empty




NASA's NSSDC Master Catalog

Two Line Element Set (TLE):
1 35706U 93036AQB 24108.98455388  .00003469  00000-0  29174-2 0  9994
2 35706  73.8887 338.1651 0356367 137.6364 225.2864 13.62755374538267
Source of the keplerian elements: AFSPC